Weather reports worldwide

Advertisment
London/Heathrow Intl, United Kingdom (3772): temperature & dewpoint: 17.10.2020 06:00:00 - 23.10.2020 06:00:00 (BST)London/Heathrow Intl, United Kingdom (3772): wind speed & gusts: 17.10.2020 06:00:00 - 23.10.2020 06:00:00 (BST)London/Heathrow Intl, United Kingdom (3772): wind direction: 17.10.2020 06:00:00 - 23.10.2020 06:00:00 (BST)London/Heathrow Intl, United Kingdom (3772): reduced air pressure: 17.10.2020 06:00:00 - 23.10.2020 06:00:00 (BST)London/Heathrow Intl, United Kingdom (3772): visibility: 17.10.2020 06:00:00 - 23.10.2020 06:00:00 (BST)London/Heathrow Intl, United Kingdom (3772): sunshine duration: 17.10.2020 06:00:00 - 23.10.2020 06:00:00 (BST)London/Heathrow Intl, United Kingdom (3772): precipitation: 17.10.2020 06:00:00 - 23.10.2020 06:00:00 (BST)
Date & Time tt [°C] td [°C] ff [km/h] ff [kn] fx [km/h] fx [kn] dd ppp [hPa] vv [km] sd [min] rr [mm]
23.10.2020 06:00:00 11,0 10,6 11 6 - - S 1007,8 10 0 -
23.10.2020 05:00:00 10,8 10,3 9 5 - - S 1007,9 10 0 0,0
23.10.2020 04:00:00 11,6 11,0 8 4 - - SSE 1008,5 8 0 0,0
23.10.2020 03:00:00 11,4 10,9 8 4 - - S 1009,4 9 0 0,0
23.10.2020 02:00:00 10,9 10,4 9 5 - - SSE 1009,8 11 0 0,0
23.10.2020 01:00:00 10,5 9,8 5 3 - - SSE 1010,3 10 - 0,0
23.10.2020 00:00:00 10,6 9,4 4 2 - - W 1010,4 14 0 0,0
22.10.2020 23:00:00 11,4 10,0 9 5 - - SSW 1010,6 16 0 0,0
22.10.2020 22:00:00 12,4 10,4 9 5 - - SSW 1010,7 10 0 0,0
22.10.2020 21:00:00 12,4 10,2 5 3 - - - 1010,7 10 0 0,0
22.10.2020 20:00:00 12,6 9,6 8 4 - - W 1010,4 10 0 0,0
22.10.2020 19:00:00 13,5 9,9 9 5 - - SW 1009,9 45 0 0,0
22.10.2020 18:00:00 13,6 9,4 13 7 - - SW 1009,5 50 18 0,0
22.10.2020 17:00:00 15,1 9,6 13 7 - - WSW 1009,1 10 24 0,0
22.10.2020 16:00:00 14,7 9,4 13 7 - - W 1008,9 10 6 0,0
22.10.2020 15:00:00 15,5 9,3 18 10 - - W 1008,7 10 30 0,0
22.10.2020 14:00:00 16,7 10,0 22 12 - - W 1008,6 10 54 0,0
22.10.2020 13:00:00 15,3 9,0 24 13 - - W 1008,6 40 48 0,0
22.10.2020 12:00:00 14,9 10,4 22 12 - - WSW 1008,7 21 6 0,0
22.10.2020 11:00:00 15,6 10,6 21 11 - - WSW 1008,3 10 48 0,0
22.10.2020 10:00:00 13,9 10,8 18 10 - - SW 1008,1 10 36 0,0
22.10.2020 09:00:00 12,3 10,3 16 9 - - SSW 1007,5 17 0 0,0
22.10.2020 08:00:00 12,0 10,3 18 10 - - SSW 1006,8 17 0 0,0
22.10.2020 07:00:00 11,6 9,9 15 8 - - SSW 1006,2 10 0 0,0
22.10.2020 06:00:00 12,1 10,3 16 9 - - SSW 1005,8 10 0 0,0
22.10.2020 05:00:00 11,7 10,0 13 7 - - SW 1005,4 10 0 0,0
22.10.2020 04:00:00 12,0 10,1 16 9 - - SSW 1005,0 10 0 0,0
22.10.2020 03:00:00 12,3 10,1 21 11 - - SSW 1004,9 10 0 0,0
22.10.2020 02:00:00 12,7 10,2 22 12 - - SSW 1004,6 10 0 0,0
22.10.2020 01:00:00 12,5 10,2 16 9 - - SW 1004,2 10 - 0,0
22.10.2020 00:00:00 12,6 10,2 21 11 - - SSW 1003,9 16 0 0,0
21.10.2020 23:00:00 13,5 10,7 28 15 - - SSW 1003,5 30 0 0,0
21.10.2020 22:00:00 14,1 12,6 16 9 - - SSW 1002,6 10 0 0,0
21.10.2020 21:00:00 13,7 12,2 18 10 - - SSW 1002,0 50 0 0,0
21.10.2020 20:00:00 14,3 12,7 15 8 - - SSW 1001,4 10 0 0,0
21.10.2020 19:00:00 14,3 12,9 13 7 - - SW 1000,7 10 0 0,0
21.10.2020 18:00:00 14,6 13,1 16 9 - - SW 999,5 50 0 0,0
21.10.2020 17:00:00 14,7 13,6 16 9 - - WSW 998,1 10 0 0,0
21.10.2020 16:00:00 14,2 13,2 18 10 46 25 W 995,8 10 0 2,0
21.10.2020 15:00:00 15,7 14,7 13 7 - - SW 993,5 4,1 0 0,2
21.10.2020 14:00:00 15,6 14,7 15 8 - - SW 992,6 10 0 0,2
21.10.2020 13:00:00 14,9 14,2 13 7 - - WSW 991,8 10 0 1,2
21.10.2020 12:00:00 14,5 14,1 2 1 - - E 991,1 7 0 2,6
21.10.2020 11:00:00 14,2 13,9 5 3 - - ENE 990,9 6 0 2,8
21.10.2020 10:00:00 14,1 13,7 9 5 - - E 991,5 7 0 1,6
21.10.2020 09:00:00 14,0 13,6 13 7 - - E 992,5 6 0 1,8
21.10.2020 08:00:00 14,1 13,7 13 7 - - E 993,2 8 0 1,0
21.10.2020 07:00:00 14,3 13,8 13 7 - - E 994,2 5 0 1,4
21.10.2020 06:00:00 14,2 13,8 9 5 - - E 995,6 6 0 2,2
21.10.2020 05:00:00 14,4 13,7 11 6 - - E 996,6 8 0 0,4
21.10.2020 04:00:00 14,7 13,5 9 5 - - ESE 997,3 10 0 0,0
21.10.2020 03:00:00 14,9 13,3 9 5 - - ESE 998,3 18 0 0,0
21.10.2020 02:00:00 14,8 13,1 11 6 - - SE 999,1 15 0 0,0
21.10.2020 01:00:00 15,0 13,0 15 8 - - SSE 999,3 10 - 0,0
21.10.2020 00:00:00 15,0 12,9 15 8 - - SE 999,8 21 0 0,0
20.10.2020 23:00:00 14,9 12,7 15 8 - - SSE 1000,2 10 0 0,0
20.10.2020 22:00:00 15,6 12,8 15 8 - - S 1000,2 10 0 0,0
20.10.2020 21:00:00 15,2 12,8 18 10 - - SSE 1000,6 13 0 0,0
20.10.2020 20:00:00 15,0 12,8 15 8 - - S 1000,7 10 0 0,0
20.10.2020 19:00:00 15,5 12,8 16 9 - - S 1000,8 10 0 0,0
20.10.2020 18:00:00 16,2 12,3 13 7 - - S 1000,7 23 0 0,0
20.10.2020 17:00:00 17,0 12,4 22 12 - - SSW 1001,0 10 6 0,0
20.10.2020 16:00:00 17,5 11,8 28 15 - - SSW 1001,1 10 18 0,0
20.10.2020 15:00:00 18,6 12,7 24 13 - - SSW 1001,1 10 6 0,0
20.10.2020 14:00:00 17,4 11,6 26 14 48 26 SSW 1001,3 10 6 0,0
20.10.2020 13:00:00 17,5 12,0 24 13 52 28 SSW 1001,3 35 0 0,2
20.10.2020 12:00:00 16,9 12,9 22 12 - - SSW 1001,4 23 0 0,0
20.10.2020 11:00:00 16,1 12,8 21 11 - - SSW 1001,5 19 0 0,0
20.10.2020 10:00:00 15,1 12,9 16 9 - - S 1001,2 10 0 0,0
20.10.2020 09:00:00 14,3 12,3 15 8 - - S 1001,3 16 0 0,0
20.10.2020 08:00:00 13,5 12,0 15 8 - - SSE 1001,0 10 0 0,0
20.10.2020 07:00:00 13,4 12,4 11 6 - - S 1001,3 14 0 0,0
20.10.2020 06:00:00 12,6 11,9 11 6 - - SSE 1001,2 10 0 1,0
20.10.2020 05:00:00 12,2 11,0 18 10 - - SSE 1001,4 4,0 0 0,4
20.10.2020 04:00:00 12,4 10,2 21 11 - - SSE 1001,6 10 0 0,2
20.10.2020 03:00:00 12,8 8,5 16 9 - - SE 1002,7 25 0 0,0
20.10.2020 02:00:00 12,2 7,9 16 9 - - SSE 1003,7 10 0 0,0
20.10.2020 01:00:00 12,2 7,3 18 10 - - SSE 1004,5 10 - 0,0
20.10.2020 00:00:00 12,2 6,7 21 11 - - SSE 1005,7 10 0 0,0
19.10.2020 23:00:00 12,0 6,2 15 8 - - SSE 1006,6 10 0 0,0
19.10.2020 22:00:00 12,5 6,2 18 10 - - SE 1007,3 10 0 0,0
19.10.2020 21:00:00 12,4 6,3 18 10 - - SE 1008,2 10 0 0,0
19.10.2020 20:00:00 12,6 6,0 21 11 - - SE 1009,2 10 0 0,0
19.10.2020 19:00:00 12,5 6,4 24 13 - - SE 1010,2 35 0 0,0
19.10.2020 18:00:00 12,9 6,0 21 11 - - SE 1010,8 10 0 0,0
19.10.2020 17:00:00 13,3 5,6 22 12 - - SSE 1011,6 10 0 0,0
19.10.2020 16:00:00 14,4 5,2 22 12 - - SSE 1012,4 10 12 0,0
19.10.2020 15:00:00 15,2 5,1 28 15 - - S 1013,6 10 54 0,0
19.10.2020 14:00:00 15,1 4,8 28 15 - - S 1014,6 10 60 0,0
19.10.2020 13:00:00 15,9 7,3 26 14 - - S 1015,4 10 54 0,0
19.10.2020 12:00:00 14,1 8,4 26 14 - - S 1016,5 10 0 0,0
19.10.2020 11:00:00 13,2 8,6 16 9 - - SSE 1017,3 10 0 0,0
19.10.2020 10:00:00 11,8 8,8 11 6 - - SSE 1017,8 10 0 0,0
19.10.2020 09:00:00 10,5 7,8 15 8 - - SE 1018,2 17 0 0,0
19.10.2020 08:00:00 9,6 7,7 11 6 - - SE 1018,4 16 0 0,0
19.10.2020 07:00:00 8,2 6,4 9 5 - - SSE 1018,9 10 0 0,0
19.10.2020 06:00:00 7,5 5,9 8 4 - - SE 1019,4 10 0 0,0
19.10.2020 05:00:00 9,0 6,8 5 3 - - E 1020,0 17 0 0,0
19.10.2020 04:00:00 9,6 7,6 4 2 - - E 1020,5 10 0 0,0
19.10.2020 03:00:00 9,6 7,8 4 2 - - ESE 1021,1 18 0 0,0
19.10.2020 02:00:00 10,1 8,0 8 4 - - S 1021,5 10 0 0,0
19.10.2020 01:00:00 10,1 8,3 5 3 - - S 1022,1 10 - 0,0
19.10.2020 00:00:00 10,4 8,3 8 4 - - S 1022,4 18 0 0,0
18.10.2020 23:00:00 10,6 7,6 5 3 - - SSE 1022,5 16 0 0,0
18.10.2020 22:00:00 10,9 7,7 5 3 - - - 1022,8 10 0 0,0
18.10.2020 21:00:00 10,7 7,5 4 2 - - S 1023,0 29 0 0,0
18.10.2020 20:00:00 11,1 7,1 0 0 - - N 1023,3 10 0 0,0
18.10.2020 19:00:00 11,4 7,1 4 2 - - NNW 1023,4 10 0 0,0
18.10.2020 18:00:00 11,7 7,6 5 3 - - WNW 1023,0 10 0 0,0
18.10.2020 17:00:00 12,0 6,0 9 5 - - WSW 1023,0 10 0 0,0
18.10.2020 16:00:00 12,4 7,2 8 4 - - WNW 1023,2 10 0 0,0
18.10.2020 15:00:00 12,7 7,1 4 2 - - - 1023,6 10 0 0,0
18.10.2020 14:00:00 12,3 7,5 4 2 - - - 1023,9 10 0 0,0
18.10.2020 13:00:00 12,1 7,8 5 3 - - - 1024,7 10 0 0,0
18.10.2020 12:00:00 11,5 8,2 2 1 - - N 1025,1 25 0 0,0
18.10.2020 11:00:00 10,5 8,2 5 3 - - - 1025,1 10 0 0,0
18.10.2020 10:00:00 8,6 7,6 8 4 - - W 1024,8 9 0 0,0
18.10.2020 09:00:00 7,4 6,8 8 4 - - W 1024,7 6 0 0,0
18.10.2020 08:00:00 6,5 5,9 5 3 - - - 1024,2 5 0 0,0
18.10.2020 07:00:00 7,4 6,6 2 1 - - N 1023,6 10 0 0,0
18.10.2020 06:00:00 7,4 6,3 5 3 - - WNW 1023,5 10 0 0,0
18.10.2020 05:00:00 7,1 6,3 4 2 - - WNW 1023,5 10 0 0,0
18.10.2020 04:00:00 7,2 6,4 5 3 - - WNW 1023,7 10 0 0,0
18.10.2020 03:00:00 7,0 5,9 4 2 - - - 1023,9 10 0 0,0
18.10.2020 02:00:00 6,8 5,2 5 3 - - W 1023,9 18 0 0,0
18.10.2020 01:00:00 8,1 5,7 5 3 - - W 1023,9 10 - 0,0
18.10.2020 00:00:00 8,9 6,3 8 4 - - W 1023,8 10 0 0,0
17.10.2020 23:00:00 9,2 6,1 8 4 - - W 1023,6 10 0 0,0
17.10.2020 22:00:00 9,6 5,9 5 3 - - - 1023,4 10 0 0,0
17.10.2020 21:00:00 9,7 6,1 4 2 - - - 1023,3 10 0 0,0
17.10.2020 20:00:00 9,7 6,1 4 2 - - NW 1023,1 10 0 0,0
17.10.2020 19:00:00 10,8 6,0 5 3 - - - 1022,8 10 0 0,0
17.10.2020 18:00:00 10,9 6,4 9 5 - - NNE 1022,2 45 0 0,0
17.10.2020 17:00:00 11,3 6,6 8 4 - - N 1022,0 30 0 0,0
17.10.2020 16:00:00 12,4 6,9 8 4 - - WNW 1022,0 10 0 0,0
17.10.2020 15:00:00 12,4 6,8 5 3 - - - 1022,1 10 0 0,0
17.10.2020 14:00:00 12,0 7,5 5 3 - - - 1022,1 10 0 0,0
17.10.2020 13:00:00 11,4 7,1 5 3 - - - 1022,5 10 0 0,0
17.10.2020 12:00:00 10,9 7,6 4 2 - - NE 1022,8 28 0 0,0
17.10.2020 11:00:00 10,4 7,4 8 4 - - NE 1022,8 10 0 0,0
17.10.2020 10:00:00 10,1 7,5 8 4 - - NE 1022,8 10 0 0,0
17.10.2020 09:00:00 9,7 7,5 9 5 - - NNE 1022,8 27 0 0,0
17.10.2020 08:00:00 9,5 7,5 9 5 - - NNE 1022,5 10 0 0,0
17.10.2020 07:00:00 9,6 7,9 8 4 - - NNE 1022,3 10 0 0,0
17.10.2020 06:00:00 9,7 7,9 9 5 - - NNE 1022,5 29 0 0,0

tt = temperature
td = dewpoint
ff = wind speed
fx = gusts
dd = wind direction
ppp = reduced air pressure
vv = visibility
sd = sunshine duration
rr = precipitation

Next stations